Regional Weather Roundup
Issued by NWS

Home | Current Version | Previous Version | Text Only | Print | Product List | Glossary Off
Versions: 1 2 3 4 5 6 7 8 9 10 11 12 13 14 15 16 17 18 19 20 21 22 23 24 25 26 27 28 29 30 31 32 33 34 35 36 37 38 39 40 41 42 43 44 45 46 47 48 49 50

000
ASUS45 KSLC 210310
RWRUT

UTAH REGIONAL WEATHER ROUNDUP
NATIONAL WEATHER SERVICE SALT LAKE CITY UT
800 PM MST SAT DEC 20 2014

UTZ001>011-023>025-210400-

NORTHERN UTAH

CITY           SKY/WX    TMP DP  RH WIND       PRES   REMARKS
BRIGHAM CITY   CLOUDY    40  35  80 CALM      30.08R
HILL AFB       CLOUDY    38  37  94 S10       30.05R WCI  31
LOGAN          CLOUDY    39  34  82 SE5       30.04R
OGDEN          CLOUDY    39  36  89 SE8       30.05R WCI  33
PROVO AIRPORT  MOCLDY    37  34  87 CALM      30.09F
SALT LAKE CITY CLOUDY    40  35  83 SE8       30.07R WCI  34
VERNAL         CLOUDY    29  26  89 CALM      30.08S
WENDOVER       CLOUDY    36  28  75 CALM      30.06S
HEBER CITY     CLOUDY    34  32  93 CALM      30.05R
WEST JORDAN    CLOUDY    39  37  93 S12       30.08R WCI  32

$$

UTZ012>022-026-027-210400-

SOUTHERN/CENTRAL UTAH

CITY           SKY/WX    TMP DP  RH WIND       PRES   REMARKS
BLANDING       CLOUDY    31  31  99 CALM      30.20R
BRYCE CANYON   CLOUDY    27  24  89 W7        30.12R WCI  19
CEDAR CITY     CLOUDY    38  28  67 S6        30.10R WCI  33
DELTA          MOCLDY    35  33  92 NE7       30.08S WCI  29
MILFORD        PTCLDY    38  29  70 S10       30.07R WCI  31
MOAB/CYNLANDS  CLOUDY    36  32  85 NW5       30.12R WCI  32
PRICE          CLOUDY    31  26  82 E3        30.08F
ST GEORGE      CLOUDY    46  34  61 S5        30.15S
KANAB            N/A     36  32  87 CALM      30.17R

$$

REGIONAL REPORTS     COLORADO/ARIZONA

CITY           SKY/WX    TMP DP  RH WIND       PRES   REMARKS
CRAIG, CO      CLOUDY    27  25  92 CALM      30.06S
GRAND JUNCTION CLOUDY    33  31  92 CALM      30.12R
RIFLE          LGT SNOW  30  28  92 CALM      30.11S FOG
MONTROSE       CLOUDY    33  25  72 NE3       30.12R
CORTEZ         MOCLDY    32  28  85 CALM      30.12S
PAGE, AZ       CLOUDY    38  30  73 CALM      30.14S
GRAND CANYON   CLOUDY    31  26  82 CALM      30.15S
KINGMAN        MOCLDY    38  34  85 SE7       30.13S WCI  33
FLAGSTAFF      CLOUDY    30  24  78 W5        30.16R WCI  25

$$

REGIONAL REPORTS    NEVADA/IDAHO/WYOMING

CITY           SKY/WX    TMP DP  RH WIND       PRES   REMARKS
LAS VEGAS, NV  MOCLDY    51  37  58 S7        30.10F
ELY            CLOUDY    34  30  85 NE5       30.13R WCI  30
ELKO           FLURRIES  33  32  96 W8        30.09R WCI  26
POCATELLO, ID  CLOUDY    39  34  82 S17G24    29.97F WCI  30
BURLEY         LGT RAIN  39  36  89 SW7       29.98S WCI  34
EVANSTON, WY   CLOUDY    30  29  96 SW12      30.02S WCI  20
ROCK SPRINGS   CLOUDY    30  27  88 SW18      29.98F WCI  18
KEMMERER       CLOUDY    30  28  93 SW8       30.00R WCI  23

$$


USA.gov is the U.S. government's official web portal to all federal, state and local government web resources and services.